Time,TemperatureF,DewpointF,PressureIn,WindDirection,WindDirectionDegrees,WindSpeedMPH,WindSpeedGustMPH,Humidity,HourlyPrecipIn,Conditions,Clouds,dailyrainin,SoftwareType,DateUTC
2013-06-24 00:04:00,71.8,63.8,30.20,ESE,106,0.0,0.0,76,0.00,NA,NA,-99.99,VWS Version 10.38,2013-06-24 04:04:00,
2013-06-24 00:09:00,71.8,64.2,30.20,SSW,205,0.0,0.0,77,0.00,NA,NA,-99.99,VWS Version 10.38,2013-06-24 04:09:00,
2013-06-24 00:14:00,71.8,64.2,30.20,SSW,205,0.0,0.0,77,0.00,NA,NA,-99.99,VWS Version 10.38,2013-06-24 04:14:00,
2013-06-24 00:19:00,71.8,64.2,30.20,WSW,238,0.0,0.0,77,0.00,NA,NA,-99.99,VWS Version 10.38,2013-06-24 04:19:00,
2013-06-24 00:24:00,71.8,64.2,30.20,WSW,237,0.0,0.0,77,0.00,NA,NA,-99.99,VWS Version 10.38,2013-06-24 04:24:00,
2013-06-24 00:29:00,72.0,64.4,30.20,SSW,210,0.0,0.0,77,0.00,NA,NA,-99.99,VWS Version 10.38,2013-06-24 04:29:00,
2013-06-24 00:34:00,71.8,64.2,30.20,SSW,212,0.0,0.0,77,0.00,NA,NA,-99.99,VWS Version 10.38,2013-06-24 04:34:00,
2013-06-24 00:44:00,71.8,64.2,30.20,SSW,209,3.6,3.6,77,0.00,NA,NA,-99.99,VWS Version 10.38,2013-06-24 04:44:00,
2013-06-24 00:49:00,71.8,64.6,30.20,NE,50,0.0,0.0,78,0.00,NA,NA,-99.99,VWS Version 10.38,2013-06-24 04:49:00,
2013-06-24 00:54:00,71.8,64.6,30.20,WSW,249,0.0,0.0,78,0.00,NA,NA,-99.99,VWS Version 10.38,2013-06-24 04:54:00,
2013-06-24 00:59:00,71.8,64.6,30.20,WNW,285,0.0,0.0,78,0.00,NA,NA,-99.99,VWS Version 10.38,2013-06-24 04:59:00,
2013-06-24 01:04:00,71.8,64.6,30.20,SW,224,0.0,0.0,78,0.00,NA,NA,-99.99,VWS Version 10.38,2013-06-24 05:04:00,
2013-06-24 01:09:00,71.8,64.6,30.17,ESE,112,0.0,0.0,78,0.00,NA,NA,-99.99,VWS Version 10.38,2013-06-24 05:09:00,
2013-06-24 01:19:00,71.8,64.6,30.17,SW,221,0.0,0.0,78,0.00,NA,NA,-99.99,VWS Version 10.38,2013-06-24 05:19:00,
2013-06-24 01:24:00,71.6,64.4,30.17,SE,145,0.0,0.0,78,0.00,NA,NA,-99.99,VWS Version 10.38,2013-06-24 05:24:00,
2013-06-24 01:29:00,71.6,64.4,30.17,North,353,0.0,0.0,78,0.00,NA,NA,-99.99,VWS Version 10.38,2013-06-24 05:29:00,
2013-06-24 01:34:00,71.6,64.8,30.17,South,174,0.0,0.0,79,0.00,NA,NA,-99.99,VWS Version 10.38,2013-06-24 05:34:00,
2013-06-24 01:39:00,71.6,64.8,30.17,East,85,0.0,0.0,79,0.00,NA,NA,-99.99,VWS Version 10.38,2013-06-24 05:39:00,
2013-06-24 01:44:00,71.6,64.8,30.17,SE,135,0.0,0.0,79,0.00,NA,NA,-99.99,VWS Version 10.38,2013-06-24 05:44:00,
2013-06-24 01:49:00,71.6,64.8,30.17,NE,53,0.0,0.0,79,0.00,NA,NA,-99.99,VWS Version 10.38,2013-06-24 05:49:00,
2013-06-24 01:54:00,71.6,64.8,30.17,NW,309,0.0,0.0,79,0.00,NA,NA,-99.99,VWS Version 10.38,2013-06-24 05:54:00,
2013-06-24 02:04:00,71.6,64.8,30.17,NW,317,0.0,0.0,79,0.00,NA,NA,-99.99,VWS Version 10.38,2013-06-24 06:04:00,
2013-06-24 02:09:00,71.4,64.9,30.17,NW,310,0.0,0.0,80,0.00,NA,NA,-99.99,VWS Version 10.38,2013-06-24 06:09:00,
2013-06-24 02:14:00,71.4,64.9,30.17,NW,310,0.0,0.0,80,0.00,NA,NA,-99.99,VWS Version 10.38,2013-06-24 06:14:00,
2013-06-24 02:19:00,71.4,64.9,30.17,NW,310,0.0,0.0,80,0.00,NA,NA,-99.99,VWS Version 10.38,2013-06-24 06:19:00,
2013-06-24 02:24:00,71.2,64.8,30.17,NW,310,0.0,0.0,80,0.00,NA,NA,-99.99,VWS Version 10.38,2013-06-24 06:24:00,
2013-06-24 02:34:00,71.2,64.8,30.17,NW,310,0.0,0.0,80,0.00,NA,NA,-99.99,VWS Version 10.38,2013-06-24 06:34:00,
2013-06-24 02:39:00,71.2,64.8,30.17,NW,310,0.0,0.0,80,0.00,NA,NA,-99.99,VWS Version 10.38,2013-06-24 06:39:00,
2013-06-24 02:44:00,71.2,64.8,30.17,NNW,346,0.0,0.0,80,0.00,NA,NA,-99.99,VWS Version 10.38,2013-06-24 06:44:00,
2013-06-24 02:49:00,71.2,64.8,30.17,NNW,346,0.0,0.0,80,0.00,NA,NA,-99.99,VWS Version 10.38,2013-06-24 06:49:00,
2013-06-24 02:59:00,71.1,64.6,30.17,NNW,346,0.0,0.0,80,0.00,NA,NA,-99.99,VWS Version 10.38,2013-06-24 06:59:00,
2013-06-24 03:09:00,71.1,64.9,30.17,NNW,346,0.0,0.0,81,0.00,NA,NA,-99.99,VWS Version 10.38,2013-06-24 07:09:00,
2013-06-24 03:14:00,71.1,64.9,30.17,NNW,346,0.0,0.0,81,0.00,NA,NA,-99.99,VWS Version 10.38,2013-06-24 07:14:00,
2013-06-24 03:19:00,71.1,64.9,30.17,NNW,346,0.0,0.0,81,0.00,NA,NA,-99.99,VWS Version 10.38,2013-06-24 07:19:00,
2013-06-24 03:24:00,71.1,64.9,30.17,NNW,346,0.0,0.0,81,0.00,NA,NA,-99.99,VWS Version 10.38,2013-06-24 07:24:00,
2013-06-24 03:29:00,71.1,64.9,30.17,NNW,346,0.0,0.0,81,0.00,NA,NA,-99.99,VWS Version 10.38,2013-06-24 07:29:00,
2013-06-24 03:34:00,71.1,64.9,30.17,SSE,163,0.0,0.0,81,0.00,NA,NA,-99.99,VWS Version 10.38,2013-06-24 07:34:00,
2013-06-24 03:44:00,71.1,64.9,30.17,ESE,112,0.0,0.0,81,0.00,NA,NA,-99.99,VWS Version 10.38,2013-06-24 07:44:00,
2013-06-24 03:49:00,71.1,64.9,30.17,SSE,167,2.7,2.7,81,0.00,NA,NA,-99.99,VWS Version 10.38,2013-06-24 07:49:00,
2013-06-24 03:54:00,71.1,64.9,30.17,SSE,163,0.0,0.0,81,0.00,NA,NA,-99.99,VWS Version 10.38,2013-06-24 07:54:00,
2013-06-24 03:59:00,71.1,64.9,30.17,SE,129,0.0,0.0,81,0.00,NA,NA,-99.99,VWS Version 10.38,2013-06-24 07:59:00,
2013-06-24 04:04:00,71.1,64.9,30.17,SE,133,0.0,0.0,81,0.00,NA,NA,-99.99,VWS Version 10.38,2013-06-24 08:04:00,
2013-06-24 04:09:00,71.1,65.3,30.14,SSE,158,0.0,0.0,82,0.00,NA,NA,-99.99,VWS Version 10.38,2013-06-24 08:09:00,
2013-06-24 04:14:00,71.1,65.3,30.14,ESE,110,0.0,0.0,82,0.00,NA,NA,-99.99,VWS Version 10.38,2013-06-24 08:14:00,
2013-06-24 04:24:00,71.1,65.3,30.14,SE,138,0.0,0.0,82,0.00,NA,NA,-99.99,VWS Version 10.38,2013-06-24 08:24:00,
2013-06-24 04:29:00,71.1,65.3,30.14,SE,125,0.0,0.0,82,0.00,NA,NA,-99.99,VWS Version 10.38,2013-06-24 08:29:00,
2013-06-24 04:34:00,71.1,65.3,30.14,SW,221,0.0,0.0,82,0.00,NA,NA,-99.99,VWS Version 10.38,2013-06-24 08:34:00,
2013-06-24 04:39:00,71.1,65.3,30.14,SW,219,0.0,0.0,82,0.00,NA,NA,-99.99,VWS Version 10.38,2013-06-24 08:39:00,
2013-06-24 04:44:00,71.1,65.3,30.14,East,96,0.0,0.0,82,0.00,NA,NA,-99.99,VWS Version 10.38,2013-06-24 08:44:00,
2013-06-24 04:49:00,71.1,65.3,30.14,SSE,158,0.0,0.0,82,0.00,NA,NA,-99.99,VWS Version 10.38,2013-06-24 08:49:00,
2013-06-24 04:55:00,71.1,65.6,30.14,SSE,158,0.0,0.0,83,0.00,NA,NA,-99.99,VWS Version 10.38,2013-06-24 08:55:00,
2013-06-24 05:00:00,71.1,65.6,30.14,NNE,13,0.0,0.0,83,0.00,NA,NA,-99.99,VWS Version 10.38,2013-06-24 09:00:00,
2013-06-24 05:05:00,71.1,65.6,30.14,NNE,27,0.0,0.0,83,0.00,NA,NA,-99.99,VWS Version 10.38,2013-06-24 09:05:00,
2013-06-24 05:10:00,71.1,65.6,30.14,NNW,348,0.0,0.0,83,0.00,NA,NA,-99.99,VWS Version 10.38,2013-06-24 09:10:00,
2013-06-24 05:15:00,71.1,65.6,30.14,North,0,0.0,0.0,83,0.00,NA,NA,-99.99,VWS Version 10.38,2013-06-24 09:15:00,
2013-06-24 05:20:00,71.1,65.6,30.14,North,0,0.0,0.0,83,0.00,NA,NA,-99.99,VWS Version 10.38,2013-06-24 09:20:00,
2013-06-24 05:30:00,71.1,65.6,30.14,NNE,14,0.0,0.0,83,0.00,NA,NA,-99.99,VWS Version 10.38,2013-06-24 09:30:00,
2013-06-24 05:35:00,71.1,65.6,30.14,NNE,14,0.0,0.0,83,0.00,NA,NA,-99.99,VWS Version 10.38,2013-06-24 09:35:00,
2013-06-24 05:40:00,71.1,66.0,30.14,ESE,105,0.0,0.0,84,0.00,NA,NA,-99.99,VWS Version 10.38,2013-06-24 09:40:00,
2013-06-24 05:45:00,71.2,66.2,30.14,SE,140,0.0,0.0,84,0.00,NA,NA,-99.99,VWS Version 10.38,2013-06-24 09:45:00,
2013-06-24 05:50:00,71.2,66.2,30.14,South,172,0.0,0.0,84,0.00,NA,NA,-99.99,VWS Version 10.38,2013-06-24 09:50:00,
2013-06-24 05:55:00,71.2,66.2,30.14,South,172,0.0,0.0,84,0.00,NA,NA,-99.99,VWS Version 10.38,2013-06-24 09:55:00,
2013-06-24 06:00:00,71.2,66.2,30.14,South,172,0.0,0.0,84,0.00,NA,NA,-99.99,VWS Version 10.38,2013-06-24 10:00:00,
2013-06-24 06:05:00,71.2,66.2,30.14,South,172,0.0,0.0,84,0.00,NA,NA,-99.99,VWS Version 10.38,2013-06-24 10:05:00,
2013-06-24 06:15:00,71.4,66.3,30.17,South,189,0.0,0.0,84,0.00,NA,NA,-99.99,VWS Version 10.38,2013-06-24 10:15:00,
2013-06-24 06:25:00,71.8,66.7,30.17,WSW,250,0.0,0.0,84,0.00,NA,NA,-99.99,VWS Version 10.38,2013-06-24 10:25:00,
2013-06-24 06:30:00,72.0,67.2,30.17,SW,214,0.0,0.0,85,0.00,NA,NA,-99.99,VWS Version 10.38,2013-06-24 10:30:00,
2013-06-24 06:35:00,72.3,67.6,30.17,NW,309,2.2,2.2,85,0.00,NA,NA,-99.99,VWS Version 10.38,2013-06-24 10:35:00,
2013-06-24 06:40:00,72.7,67.9,30.14,WSW,245,0.0,0.0,85,0.00,NA,NA,-99.99,VWS Version 10.38,2013-06-24 10:40:00,
2013-06-24 06:45:00,73.0,68.3,30.14,West,276,0.0,0.0,85,0.00,NA,NA,-99.99,VWS Version 10.38,2013-06-24 10:45:00,
2013-06-24 06:50:00,73.4,68.6,30.14,West,279,0.0,0.0,85,0.00,NA,NA,-99.99,VWS Version 10.38,2013-06-24 10:50:00,
2013-06-24 06:55:00,73.6,68.8,30.14,West,281,0.0,0.0,85,0.00,NA,NA,-99.99,VWS Version 10.38,2013-06-24 10:55:00,
2013-06-24 07:00:00,73.8,68.6,30.14,NW,316,0.0,0.0,84,0.00,NA,NA,-99.99,VWS Version 10.38,2013-06-24 11:00:00,
2013-06-24 07:05:00,73.9,68.8,30.14,WSW,253,0.0,0.0,84,0.00,NA,NA,-99.99,VWS Version 10.38,2013-06-24 11:05:00,
2013-06-24 07:10:00,74.3,69.5,30.14,West,266,0.0,0.0,85,0.00,NA,NA,-99.99,VWS Version 10.38,2013-06-24 11:10:00,
2013-06-24 07:20:00,75.7,70.6,30.14,SSW,211,0.0,0.0,84,0.00,NA,NA,-99.99,VWS Version 10.38,2013-06-24 11:20:00,
2013-06-24 07:25:00,76.6,71.4,30.17,NW,309,2.2,2.2,84,0.00,NA,NA,-99.99,VWS Version 10.38,2013-06-24 11:25:00,
2013-06-24 07:35:00,79.5,74.3,30.17,NW,311,0.0,0.0,84,0.00,NA,NA,-99.99,VWS Version 10.38,2013-06-24 11:35:00,
2013-06-24 07:40:00,80.6,73.5,30.17,SSW,210,0.0,0.0,79,0.00,NA,NA,-99.99,VWS Version 10.38,2013-06-24 11:40:00,
2013-06-24 07:45:00,80.8,70.9,30.17,SSW,213,0.0,0.0,72,0.00,NA,NA,-99.99,VWS Version 10.38,2013-06-24 11:45:00,
2013-06-24 07:50:00,81.3,70.2,30.17,SW,222,0.0,0.0,69,0.00,NA,NA,-99.99,VWS Version 10.38,2013-06-24 11:50:00,
2013-06-24 07:55:00,81.7,68.8,30.17,SW,230,2.7,2.7,65,0.00,NA,NA,-99.99,VWS Version 10.38,2013-06-24 11:55:00,
2013-06-24 08:00:00,82.0,67.3,30.17,NNW,337,2.7,2.7,61,0.00,NA,NA,-99.99,VWS Version 10.38,2013-06-24 12:00:00,
2013-06-24 08:05:00,81.9,65.7,30.17,WNW,287,3.6,3.6,58,0.00,NA,NA,-99.99,VWS Version 10.38,2013-06-24 12:05:00,
2013-06-24 08:10:00,81.3,64.1,30.17,WNW,287,0.0,0.0,56,0.00,NA,NA,-99.99,VWS Version 10.38,2013-06-24 12:10:00,
2013-06-24 08:20:00,83.1,66.8,30.17,West,274,3.1,3.1,58,0.00,NA,NA,-99.99,VWS Version 10.38,2013-06-24 12:20:00,
2013-06-24 08:30:00,83.8,64.3,30.17,West,265,0.0,0.0,52,0.00,NA,NA,-99.99,VWS Version 10.38,2013-06-24 12:30:00,
2013-06-24 08:40:00,85.5,64.1,30.17,WSW,248,2.2,2.2,49,0.00,NA,NA,-99.99,VWS Version 10.38,2013-06-24 12:40:00,
2013-06-24 08:45:00,86.4,61.9,30.17,SSE,163,2.7,2.7,44,0.00,NA,NA,-99.99,VWS Version 10.38,2013-06-24 12:45:00,
2013-06-24 08:50:00,86.7,62.9,30.17,West,279,0.0,0.0,45,0.00,NA,NA,-99.99,VWS Version 10.38,2013-06-24 12:50:00,
2013-06-24 08:55:00,87.1,62.5,30.17,SSW,207,0.0,0.0,44,0.00,NA,NA,-99.99,VWS Version 10.38,2013-06-24 12:55:00,
2013-06-24 09:00:00,87.6,62.4,30.17,SSW,211,0.0,0.0,43,0.00,NA,NA,-99.99,VWS Version 10.38,2013-06-24 13:00:00,
2013-06-24 09:09:00,88.2,61.5,30.17,West,274,0.0,0.0,41,0.00,NA,NA,-99.99,VWS Version 10.38,2013-06-24 13:09:00,
2013-06-24 09:14:00,88.3,61.0,30.17,South,177,0.0,0.0,40,0.00,NA,NA,-99.99,VWS Version 10.38,2013-06-24 13:14:00,
2013-06-24 09:20:00,88.5,60.4,30.17,SSE,149,0.0,0.0,39,0.00,NA,NA,-99.99,VWS Version 10.38,2013-06-24 13:20:00,
2013-06-24 09:29:00,88.7,59.9,30.17,WNW,289,4.5,4.5,38,0.00,NA,NA,-99.99,VWS Version 10.38,2013-06-24 13:29:00,
2013-06-24 09:34:00,88.2,57.9,30.17,NNW,332,3.6,3.6,36,0.00,NA,NA,-99.99,VWS Version 10.38,2013-06-24 13:34:00,
2013-06-24 09:40:00,88.0,59.2,30.17,NW,319,0.0,0.0,38,0.00,NA,NA,-99.99,VWS Version 10.38,2013-06-24 13:40:00,
2013-06-24 09:49:00,89.4,61.2,30.17,North,0,4.0,4.0,39,0.00,NA,NA,-99.99,VWS Version 10.38,2013-06-24 13:49:00,
2013-06-24 09:54:00,90.0,60.2,30.14,SSW,211,3.6,3.6,37,0.00,NA,NA,-99.99,VWS Version 10.38,2013-06-24 13:54:00,
2013-06-24 09:59:00,90.5,60.7,30.14,WNW,294,2.7,2.7,37,0.00,NA,NA,-99.99,VWS Version 10.38,2013-06-24 13:59:00,
2013-06-24 10:04:00,90.9,57.8,30.14,SW,230,6.3,6.3,33,0.00,NA,NA,-99.99,VWS Version 10.38,2013-06-24 14:04:00,
2013-06-24 10:10:00,91.2,59.0,30.14,WSW,246,4.0,4.0,34,0.00,NA,NA,-99.99,VWS Version 10.38,2013-06-24 14:10:00,
2013-06-24 10:19:00,91.4,59.1,30.14,WSW,251,5.4,5.4,34,0.00,NA,NA,-99.99,VWS Version 10.38,2013-06-24 14:19:00,
2013-06-24 10:24:00,91.6,57.6,30.14,NNW,339,3.6,3.6,32,0.00,NA,NA,-99.99,VWS Version 10.38,2013-06-24 14:24:00,
2013-06-24 10:29:00,91.9,57.0,30.14,NNW,337,4.0,4.0,31,0.00,NA,NA,-99.99,VWS Version 10.38,2013-06-24 14:29:00,
2013-06-24 10:35:00,91.9,55.2,30.14,West,272,5.8,5.8,29,0.00,NA,NA,-99.99,VWS Version 10.38,2013-06-24 14:35:00,
2013-06-24 10:44:00,91.8,55.0,30.14,WNW,302,4.0,4.0,29,0.00,NA,NA,-99.99,VWS Version 10.38,2013-06-24 14:44:00,
2013-06-24 10:49:00,91.9,56.1,30.14,West,275,7.6,7.6,30,0.00,NA,NA,-99.99,VWS Version 10.38,2013-06-24 14:49:00,
2013-06-24 10:54:00,92.1,56.3,30.14,WSW,246,5.4,5.4,30,0.00,NA,NA,-99.99,VWS Version 10.38,2013-06-24 14:54:00,
2013-06-24 10:59:00,92.3,55.5,30.14,WNW,302,4.9,4.9,29,0.00,NA,NA,-99.99,VWS Version 10.38,2013-06-24 14:59:00,
2013-06-24 11:14:00,91.6,53.9,30.14,NNW,339,3.6,3.6,28,0.00,NA,NA,-99.99,VWS Version 10.38,2013-06-24 15:14:00,
2013-06-24 11:20:00,91.9,55.2,30.14,West,264,6.3,6.3,29,0.00,NA,NA,-99.99,VWS Version 10.38,2013-06-24 15:20:00,
2013-06-24 11:29:00,93.0,56.1,30.14,WSW,250,2.7,2.7,29,0.00,NA,NA,-99.99,VWS Version 10.38,2013-06-24 15:29:00,
2013-06-24 11:35:00,93.4,55.4,30.14,NW,321,5.4,5.4,28,0.00,NA,NA,-99.99,VWS Version 10.38,2013-06-24 15:35:00,
2013-06-24 11:44:00,93.9,54.9,30.14,SSW,200,2.7,2.7,27,0.00,NA,NA,-99.99,VWS Version 10.38,2013-06-24 15:44:00,
2013-06-24 11:49:00,93.7,54.7,30.14,NW,306,2.2,2.2,27,0.00,NA,NA,-99.99,VWS Version 10.38,2013-06-24 15:49:00,
2013-06-24 11:54:00,93.6,55.6,30.14,WNW,285,2.7,2.7,28,0.00,NA,NA,-99.99,VWS Version 10.38,2013-06-24 15:54:00,
2013-06-24 11:59:00,94.1,56.0,30.14,SSW,202,0.0,0.0,28,0.00,NA,NA,-99.99,VWS Version 10.38,2013-06-24 15:59:00,
2013-06-24 12:09:00,95.0,55.8,30.14,NW,311,6.3,6.3,27,0.00,NA,NA,-99.99,VWS Version 10.38,2013-06-24 16:09:00,
2013-06-24 12:14:00,94.1,55.0,30.14,WNW,293,4.0,4.0,27,0.00,NA,NA,-99.99,VWS Version 10.38,2013-06-24 16:14:00,
2013-06-24 12:19:00,93.7,54.7,30.14,West,275,3.1,3.1,27,0.00,NA,NA,-99.99,VWS Version 10.38,2013-06-24 16:19:00,
2013-06-24 12:24:00,94.1,55.0,30.14,WNW,289,4.0,4.0,27,0.00,NA,NA,-99.99,VWS Version 10.38,2013-06-24 16:24:00,
2013-06-24 12:29:00,94.5,55.3,30.14,NNW,341,2.7,2.7,27,0.00,NA,NA,-99.99,VWS Version 10.38,2013-06-24 16:29:00,
2013-06-24 12:34:00,94.8,55.7,30.14,NNW,329,4.0,4.0,27,0.00,NA,NA,-99.99,VWS Version 10.38,2013-06-24 16:34:00,
2013-06-24 12:39:00,94.6,55.5,30.14,NNW,328,5.8,5.8,27,0.00,NA,NA,-99.99,VWS Version 10.38,2013-06-24 16:39:00,
2013-06-24 12:44:00,94.8,55.7,30.14,West,261,7.6,7.6,27,0.00,NA,NA,-99.99,VWS Version 10.38,2013-06-24 16:44:00,
2013-06-24 12:54:00,94.8,55.7,30.14,SSW,213,0.0,0.0,27,0.00,NA,NA,-99.99,VWS Version 10.38,2013-06-24 16:54:00,
2013-06-24 12:59:00,95.0,55.8,30.14,West,276,10.1,10.1,27,0.00,NA,NA,-99.99,VWS Version 10.38,2013-06-24 16:59:00,
2013-06-24 13:04:00,95.0,54.8,30.14,West,259,4.9,4.9,26,0.00,NA,NA,-99.99,VWS Version 10.38,2013-06-24 17:04:00,
2013-06-24 13:09:00,95.2,56.0,30.14,West,277,3.6,3.6,27,0.00,NA,NA,-99.99,VWS Version 10.38,2013-06-24 17:09:00,
2013-06-24 13:14:00,95.5,56.3,30.14,West,271,4.0,4.0,27,0.00,NA,NA,-99.99,VWS Version 10.38,2013-06-24 17:14:00,
2013-06-24 13:24:00,94.8,55.7,30.11,NNW,339,0.0,0.0,27,0.00,NA,NA,-99.99,VWS Version 10.38,2013-06-24 17:24:00,
2013-06-24 13:29:00,94.6,55.5,30.11,SW,221,5.4,5.4,27,0.00,NA,NA,-99.99,VWS Version 10.38,2013-06-24 17:29:00,
2013-06-24 13:39:00,95.2,56.0,30.11,WSW,252,0.0,0.0,27,0.00,NA,NA,-99.99,VWS Version 10.38,2013-06-24 17:39:00,
2013-06-24 13:44:00,95.9,56.6,30.11,NW,313,3.1,3.1,27,0.00,NA,NA,-99.99,VWS Version 10.38,2013-06-24 17:44:00,
2013-06-24 13:54:00,95.5,55.2,30.11,West,260,4.9,4.9,26,0.00,NA,NA,-99.99,VWS Version 10.38,2013-06-24 17:54:00,
2013-06-24 13:59:00,95.5,55.2,30.11,NW,311,2.7,2.7,26,0.00,NA,NA,-99.99,VWS Version 10.38,2013-06-24 17:59:00,
2013-06-24 14:04:00,95.7,55.4,30.11,WSW,252,4.0,4.0,26,0.00,NA,NA,-99.99,VWS Version 10.38,2013-06-24 18:04:00,
2013-06-24 14:09:00,95.9,55.5,30.11,NNW,336,3.1,3.1,26,0.00,NA,NA,-99.99,VWS Version 10.38,2013-06-24 18:09:00,
2013-06-24 14:19:00,96.8,55.2,30.11,West,275,3.1,3.1,25,0.00,NA,NA,-99.99,VWS Version 10.38,2013-06-24 18:19:00,
2013-06-24 14:24:00,97.2,56.6,30.11,SW,233,5.4,5.4,26,0.00,NA,NA,-99.99,VWS Version 10.38,2013-06-24 18:24:00,
2013-06-24 14:29:00,97.2,53.2,30.11,West,267,5.8,5.8,23,0.00,NA,NA,-99.99,VWS Version 10.38,2013-06-24 18:29:00,
2013-06-24 14:34:00,96.4,51.4,30.11,West,275,8.3,8.3,22,0.00,NA,NA,-99.99,VWS Version 10.38,2013-06-24 18:34:00,
2013-06-24 14:39:00,94.8,51.3,30.11,WNW,288,6.3,6.3,23,0.00,NA,NA,-99.99,VWS Version 10.38,2013-06-24 18:39:00,
2013-06-24 14:49:00,95.2,54.9,30.11,NNW,330,5.4,5.4,26,0.00,NA,NA,-99.99,VWS Version 10.38,2013-06-24 18:49:00,
2013-06-24 14:54:00,95.4,54.0,30.08,West,263,2.2,2.2,25,0.00,NA,NA,-99.99,VWS Version 10.38,2013-06-24 18:54:00,
2013-06-24 15:09:00,94.1,54.0,30.08,WSW,246,0.0,0.0,26,0.00,NA,NA,-99.99,VWS Version 10.38,2013-06-24 19:09:00,
2013-06-24 15:14:00,93.4,54.4,30.08,North,11,3.1,3.1,27,0.00,NA,NA,-99.99,VWS Version 10.38,2013-06-24 19:14:00,
2013-06-24 15:19:00,92.7,54.8,30.08,NW,310,0.0,0.0,28,0.00,NA,NA,-99.99,VWS Version 10.38,2013-06-24 19:19:00,
2013-06-24 15:24:00,91.9,54.2,30.08,WNW,299,2.2,2.2,28,0.00,NA,NA,-99.99,VWS Version 10.38,2013-06-24 19:24:00,
2013-06-24 15:29:00,91.8,55.0,30.08,NW,317,0.0,0.0,29,0.00,NA,NA,-99.99,VWS Version 10.38,2013-06-24 19:29:00,
2013-06-24 15:34:00,92.3,56.4,30.08,NW,326,0.0,0.0,30,0.00,NA,NA,-99.99,VWS Version 10.38,2013-06-24 19:34:00,
2013-06-24 15:44:00,93.2,57.2,30.08,NNW,337,0.0,0.0,30,0.00,NA,NA,-99.99,VWS Version 10.38,2013-06-24 19:44:00,
2013-06-24 15:49:00,92.8,56.9,30.08,SW,232,0.0,0.0,30,0.00,NA,NA,-99.99,VWS Version 10.38,2013-06-24 19:49:00,
2013-06-24 15:54:00,92.5,57.5,30.05,WNW,294,0.0,0.0,31,0.00,NA,NA,-99.99,VWS Version 10.38,2013-06-24 19:54:00,
2013-06-24 15:59:00,92.7,57.6,30.05,SW,225,2.7,2.7,31,0.00,NA,NA,-99.99,VWS Version 10.38,2013-06-24 19:59:00,
2013-06-24 16:09:00,93.7,57.7,30.05,SW,215,0.0,0.0,30,0.00,NA,NA,-99.99,VWS Version 10.38,2013-06-24 20:09:00,
2013-06-24 16:14:00,93.7,57.7,30.05,South,184,3.6,3.6,30,0.00,NA,NA,-99.99,VWS Version 10.38,2013-06-24 20:14:00,
2013-06-24 16:19:00,93.6,56.6,30.05,West,261,2.7,2.7,29,0.00,NA,NA,-99.99,VWS Version 10.38,2013-06-24 20:19:00,
2013-06-24 16:24:00,93.0,56.1,30.05,West,271,2.7,2.7,29,0.00,NA,NA,-99.99,VWS Version 10.38,2013-06-24 20:24:00,
2013-06-24 16:34:00,92.8,55.9,30.05,WSW,237,0.0,0.0,29,0.00,NA,NA,-99.99,VWS Version 10.38,2013-06-24 20:34:00,
2013-06-24 16:39:00,92.8,55.9,30.05,NW,310,2.2,2.2,29,0.00,NA,NA,-99.99,VWS Version 10.38,2013-06-24 20:39:00,
2013-06-24 16:49:00,92.3,55.5,30.05,West,276,3.6,3.6,29,0.00,NA,NA,-99.99,VWS Version 10.38,2013-06-24 20:49:00,
2013-06-24 16:54:00,91.8,55.0,30.05,WSW,238,2.7,2.7,29,0.00,NA,NA,-99.99,VWS Version 10.38,2013-06-24 20:54:00,
2013-06-24 16:59:00,91.2,55.5,30.05,North,353,2.2,2.2,30,0.00,NA,NA,-99.99,VWS Version 10.38,2013-06-24 20:59:00,
2013-06-24 17:04:00,90.9,56.1,30.05,SW,229,0.0,0.0,31,0.00,NA,NA,-99.99,VWS Version 10.38,2013-06-24 21:04:00,
2013-06-24 17:09:00,90.9,57.0,30.05,SW,220,0.0,0.0,32,0.00,NA,NA,-99.99,VWS Version 10.38,2013-06-24 21:09:00,
2013-06-24 17:14:00,90.7,58.5,30.05,North,0,0.0,0.0,34,0.00,NA,NA,-99.99,VWS Version 10.38,2013-06-24 21:14:00,
2013-06-24 20:05:00,79.5,47.1,30.08,West,276,0.0,0.0,32,0.00,NA,NA,-99.99,VWS Version 10.38,2013-06-25 00:05:00,
2013-06-24 20:10:00,79.0,47.5,30.08,West,279,0.0,0.0,33,0.00,NA,NA,-99.99,VWS Version 10.38,2013-06-25 00:10:00,
2013-06-24 20:15:00,78.6,48.7,30.08,West,279,0.0,0.0,35,0.00,NA,NA,-99.99,VWS Version 10.38,2013-06-25 00:15:00,
2013-06-24 20:25:00,77.7,48.7,30.08,West,278,2.7,2.7,36,0.00,NA,NA,-99.99,VWS Version 10.38,2013-06-25 00:25:00,
2013-06-24 20:30:00,77.4,49.1,30.08,WNW,292,4.0,4.0,37,0.00,NA,NA,-99.99,VWS Version 10.38,2013-06-25 00:30:00,
2013-06-24 20:39:00,77.0,49.5,30.11,West,269,0.0,0.0,38,0.00,NA,NA,-99.99,VWS Version 10.38,2013-06-25 00:39:00,
2013-06-24 20:44:00,76.6,49.2,30.11,NW,305,2.7,2.7,38,0.00,NA,NA,-99.99,VWS Version 10.38,2013-06-25 00:44:00,
2013-06-24 20:49:00,76.1,50.0,30.11,WNW,282,3.1,3.1,40,0.00,NA,NA,-99.99,VWS Version 10.38,2013-06-25 00:49:00,
2013-06-24 20:54:00,75.7,50.4,30.11,WSW,246,2.2,2.2,41,0.00,NA,NA,-99.99,VWS Version 10.38,2013-06-25 00:54:00,
2013-06-24 20:59:00,75.6,50.2,30.11,NW,313,2.2,2.2,41,0.00,NA,NA,-99.99,VWS Version 10.38,2013-06-25 00:59:00,
2013-06-24 21:04:00,75.2,50.6,30.11,North,357,0.0,0.0,42,0.00,NA,NA,-99.99,VWS Version 10.38,2013-06-25 01:04:00,
2013-06-24 21:09:00,74.8,50.9,30.11,North,3,0.0,0.0,43,0.00,NA,NA,-99.99,VWS Version 10.38,2013-06-25 01:09:00,
2013-06-24 21:14:00,74.5,51.2,30.11,West,266,3.6,3.6,44,0.00,NA,NA,-99.99,VWS Version 10.38,2013-06-25 01:14:00,
2013-06-24 21:19:00,74.3,51.6,30.11,NW,315,2.7,2.7,45,0.00,NA,NA,-99.99,VWS Version 10.38,2013-06-25 01:19:00,
2013-06-24 21:25:00,74.3,51.6,30.11,WSW,250,4.0,4.0,45,0.00,NA,NA,-99.99,VWS Version 10.38,2013-06-25 01:25:00,
2013-06-24 21:34:00,74.1,51.4,30.11,WNW,302,4.5,4.5,45,0.00,NA,NA,-99.99,VWS Version 10.38,2013-06-25 01:34:00,
2013-06-24 21:44:00,73.9,52.5,30.11,North,349,3.6,3.6,47,0.00,NA,NA,-99.99,VWS Version 10.38,2013-06-25 01:44:00,
2013-06-24 21:49:00,73.6,52.7,30.11,WNW,303,5.8,5.8,48,0.00,NA,NA,-99.99,VWS Version 10.38,2013-06-25 01:49:00,
2013-06-24 21:54:00,73.4,53.1,30.11,WNW,297,0.0,0.0,49,0.00,NA,NA,-99.99,VWS Version 10.38,2013-06-25 01:54:00,
2013-06-24 22:00:00,73.0,53.3,30.11,WNW,289,0.0,0.0,50,0.00,NA,NA,-99.99,VWS Version 10.38,2013-06-25 02:00:00,
2013-06-24 22:09:00,72.7,54.6,30.11,WNW,290,2.2,2.2,53,0.00,NA,NA,-99.99,VWS Version 10.38,2013-06-25 02:09:00,
2013-06-24 22:14:00,72.5,54.4,30.11,WNW,290,0.0,0.0,53,0.00,NA,NA,-99.99,VWS Version 10.38,2013-06-25 02:14:00,
2013-06-24 22:19:00,72.5,54.4,30.11,WNW,290,0.0,0.0,53,0.00,NA,NA,-99.99,VWS Version 10.38,2013-06-25 02:19:00,
2013-06-24 22:24:00,72.3,54.8,30.08,WNW,290,0.0,0.0,54,0.00,NA,NA,-99.99,VWS Version 10.38,2013-06-25 02:24:00,
2013-06-24 22:29:00,72.3,54.8,30.08,WNW,290,0.0,0.0,54,0.00,NA,NA,-99.99,VWS Version 10.38,2013-06-25 02:29:00,
2013-06-24 22:34:00,72.1,55.1,30.08,North,8,0.0,0.0,55,0.00,NA,NA,-99.99,VWS Version 10.38,2013-06-25 02:34:00,
2013-06-24 22:40:00,72.0,55.9,30.08,North,8,0.0,0.0,57,0.00,NA,NA,-99.99,VWS Version 10.38,2013-06-25 02:40:00,
2013-06-24 22:49:00,71.8,56.2,30.08,North,8,0.0,0.0,58,0.00,NA,NA,-99.99,VWS Version 10.38,2013-06-25 02:49:00,
2013-06-24 22:54:00,71.6,56.1,30.08,North,8,0.0,0.0,58,0.00,NA,NA,-99.99,VWS Version 10.38,2013-06-25 02:54:00,
2013-06-24 22:59:00,71.6,56.5,30.08,North,8,0.0,0.0,59,0.00,NA,NA,-99.99,VWS Version 10.38,2013-06-25 02:59:00,
2013-06-24 23:04:00,71.4,56.8,30.08,North,8,0.0,0.0,60,0.00,NA,NA,-99.99,VWS Version 10.38,2013-06-25 03:04:00,
2013-06-24 23:10:00,71.2,56.7,30.08,NNW,341,0.0,0.0,60,0.00,NA,NA,-99.99,VWS Version 10.38,2013-06-25 03:10:00,
2013-06-24 23:20:00,70.9,56.8,30.08,NNW,341,0.0,0.0,61,0.00,NA,NA,-99.99,VWS Version 10.38,2013-06-25 03:20:00,
2013-06-24 23:29:00,70.3,57.2,30.08,NW,314,0.0,0.0,63,0.00,NA,NA,-99.99,VWS Version 10.38,2013-06-25 03:29:00,
2013-06-24 23:39:00,69.6,56.9,30.11,NW,314,0.0,0.0,64,0.00,NA,NA,-99.99,VWS Version 10.38,2013-06-25 03:39:00,
2013-06-24 23:44:00,69.4,57.2,30.11,NW,314,0.0,0.0,65,0.00,NA,NA,-99.99,VWS Version 10.38,2013-06-25 03:44:00,
2013-06-24 23:49:00,69.3,57.4,30.11,NW,314,0.0,0.0,66,0.00,NA,NA,-99.99,VWS Version 10.38,2013-06-25 03:49:00,
2013-06-24 23:59:00,68.7,56.9,30.11,NW,314,0.0,0.0,66,0.00,NA,NA,-99.99,VWS Version 10.38,2013-06-25 03:59:00,